Find Starlink 3298

NORAD ID: 50165 Int'l Des: 2021-125 Owner: SPXS Country: US Constellation: starlink operational
LEOCIRCULAR

現在のビュー

3D地球を読み込み中...

About Starlink 3298

Starlink 3298 (NORAD 50165) is a starlink constellation satellite (v1.5) launched Dec 18, 2021 by SPXS of US. It operates in LEO, CIRCULAR orbit with a mass of 290.00 kg.

Starlink 3298について

説明を読み込み中...

次回通過

Passes for default location (London). Set your location on the main map for personalized predictions.

高度履歴

Loading altitude history...

軌道要素

1 50165U 21125K 26168.31583514 .00000194 00000-0 30269-4 0 9999
2 50165 53.1607 171.7844 0001223 81.6407 278.4723 15.08830781251548
Epoch: Jun 17, 2026 • Age: 21 hours

現在のステータス

高度 545.5 km
速度 7.60 km/s
衛星直下点 53.29°N, 76.06°W
打ち上げ日 Dec 18, 2021
運用期間 4.4 years
タイプ internet

技術仕様

分類 Payload
質量 290.00 kg
乾燥質量 270.00 kg
総質量 290.00 kg
長さ 0.20 m
直径 2.80 m
スパン 9.00 m
形状 Box + pan
製造者 SPXS
バスタイプ Starlink
フェーズステータス In Orbit
所有者/国 SPXS/US

Most Searched